Location: Trois-Rivi�res
(46.3500°N, 72.5500°W)
Time: 00:08:17
(UTC-04:00)

Envisat - Pass Details

Date: 14 October 2017
Orbit: 764 x 766 km, 98.2° (Epoch: 23 October)

Event Time Altitude Azimuth Distance (km) Brightness Sun altitude
Exits shadow 20:20:00 66° 109° (ESE) 835 2.8 -24.0°
Maximum altitude 20:20:26 70° 73° (ENE) 814 2.9 -24.0°
Drops below altitude 10° 20:25:30 10° 351° (N) 2,313 5.7 -24.9°
Sets 20:27:50 0° 349° (N) 3,243 6.6 -25.3°
